Simultaneous Nadir Overpasses (SNOs) Predictions

Prediction of SNOs between AQUA and METOP-A Satellite Orbit:

Table of predicted SNOs for the next 14.0 days since TLE Epoch: 12/21/2012
Index Date (AQUA) Time (AQUA) Lat,Lon (AQUA) SZA (AQUA ) Date (METOP-A) Time (METOP-A) Lat,Lon (METOP-A) SZA (METOP-A ) Distance(km) Time Diff (sec)
1 12/23/2012 20:15:24 73.82,-129.69 97.21 12/23/2012 20:14:23 73.80,-129.71 97.21 2.03 61
2 12/23/2012 21:04:51 -73.89, 37.80 82.72 12/23/2012 21:05:03 -73.87, 37.79 82.73 1.87 12
3 12/23/2012 21:54:26 74.27,-155.45 97.70 12/23/2012 21:55:35 74.27,-153.89 97.65 47.12 69
4 12/26/2012 15:49:42 73.80, -63.23 97.13 12/26/2012 15:48:43 73.82, -63.26 97.15 1.45 59
5 12/26/2012 16:39:09 -73.87, 104.26 82.81 12/26/2012 16:39:23 -73.89, 104.25 82.79 2.14 14
6 12/26/2012 17:28:46 74.37, -89.24 97.72 12/26/2012 17:29:54 74.34, -87.31 97.63 57.89 68
7 12/29/2012 11:24:01 73.83, 3.14 97.02 12/29/2012 11:23:02 73.84, 3.22 97.04 2.84 59
8 12/29/2012 12:13:28 -73.89, 170.64 82.92 12/29/2012 12:13:43 -73.87, 170.61 82.94 2.67 15
9 12/29/2012 13:03:05 74.39, -22.87 97.61 12/29/2012 13:04:13 74.36, -20.84 97.52 61.06 68
10 01/01/2013 06:58:19 73.84, 69.54 96.83 01/01/2013 06:57:20 73.83, 69.60 96.83 2.32 59
11 01/01/2013 07:47:46 -73.90,-122.95 83.11 01/01/2013 07:48:00 -73.91,-122.88 83.11 2.23 14
12 01/01/2013 08:37:22 74.35, 43.65 97.37 01/01/2013 08:38:30 74.39, 45.66 97.35 60.53 68
13 01/04/2013 02:32:38 73.84, 135.97 96.57 01/04/2013 02:31:38 73.82, 136.00 96.57 1.73 60
14 01/04/2013 03:22:05 -73.89, -56.50 83.38 01/04/2013 03:22:18 -73.90, -56.47 83.37 2.04 13




NCC Satellite Simultaneous Nadir Overpasses (SNOs) Prediction Service
